TIANLIAN 2-05

Last updated on Mon Jun 22 2026 00:03:08 GMT+0000 (Coordinated Universal Time)

1 63662U 25084A 26172.53663207 .00000123 00000+0 00000+0 0 9996 2 63662 4.4391 279.7867 0003257 150.3286 53.1495 1.00273080 4422
UTC large
Height (km)
Speed (km/s)
/
Latitude / Longitude
Inclination (degrees)
Orbital Period (minutes)
Azimuth
Elevation
Range (km)
Doppler Factor

Next 0 passes for location: London (51.5072 / 0.1276)

No passes found over London.
TIANLIAN 2-05